Location: Hurstbourne Priors
(51.2000°N, 1.3667°W)
Time: 08:57:58
(UTC+00:00)

Okean 3 Rocket - Pass Details

Date: 09 April 2020
Orbit: 616 x 644 km, 82.5° (Epoch: 22 May)

Event Time Altitude Azimuth Distance (km) Brightness Sun altitude
Rises 20:47:00 0° 354° (N) 2,914 7.7 -16.9°
Reaches altitude 10° 20:49:21 10° 2° (N) 2,006 6.7 -17.2°
Maximum altitude 20:53:33 40° 73° (ENE) 925 4.2 -17.7°
Enters shadow 20:54:36 35° 107° (ESE) 1,028 4.2 -17.8°
